This is the latest recevied weather packets stored in our database for station/object WD8INF-9. If no packets are shown the sender has not sent any weather packets the latest 10 day(s).
| Time | Temp. | Humidity | Pressure | Rain* | Wind** | Luminosity | Snow |
|---|---|---|---|---|---|---|---|
| 1778180118 | 22.78° C | - | 1012.5 hPa | 0 mm | - | - | - |
| 1778179818 | 21.67° C | - | 1012.5 hPa | 0 mm | - | - | - |
| 1778179517 | 21.11° C | - | 1012.8 hPa | 0 mm | - | - | - |
| 1778179217 | 20° C | - | 1012.9 hPa | 0 mm | - | - | - |
| 1778178917 | 16.67° C | - | 1012.7 hPa | 0 mm | - | - | - |
| 1778178617 | 16.67° C | - | 1012.7 hPa | 0 mm | - | - | - |
| 1778178316 | 19.44° C | - | 1012.7 hPa | 0 mm | - | - | - |
| 1778178016 | 21.11° C | - | 1012.3 hPa | 0 mm | - | - | - |
| 1778177716 | 20° C | - | 1012.8 hPa | 0 mm | - | - | - |
| 1778177416 | 20° C | - | 1012.6 hPa | 0 mm | - | - | - |
| 1778177115 | 20° C | - | 1013 hPa | 0 mm | - | - | - |
| 1778176815 | 18.89° C | - | 1012.8 hPa | 0 mm | - | - | - |
| 1778176515 | 18.89° C | - | 1013 hPa | 0 mm | - | - | - |
| 1778176215 | 19.44° C | - | 1012.9 hPa | 0 mm | - | - | - |
| 1778175915 | 19.44° C | - | 1012.8 hPa | 0 mm | - | - | - |
| 1778175614 | 18.89° C | - | 1013 hPa | 0 mm | - | - | - |
| 1778175314 | 20° C | - | 1012.8 hPa | 0 mm | - | - | - |
| 1778175014 | 19.44° C | - | 1013.3 hPa | 0 mm | - | - | - |
| 1778174713 | 18.89° C | - | 1013 hPa | 0 mm | - | - | - |
| 1778174413 | 18.89° C | - | 1013.5 hPa | 0 mm | - | - | - |
| 1778174113 | 19.44° C | - | 1013.2 hPa | 0 mm | - | - | - |
| 1778173813 | 19.44° C | - | 1013.6 hPa | 0 mm | - | - | - |
| 1778173512 | 20° C | - | 1013.4 hPa | 0 mm | - | - | - |
| 1778173211 | 18.33° C | - | 1013.7 hPa | 0 mm | - | - | - |
| 1778172911 | 18.89° C | - | 1013.4 hPa | 0 mm | - | - | - |
* Rain since midnight (hover to see other rain measurements)
** Current wind speed in m/s (hover to see current wind gust speed)